Tracking 29892 objects as of 21-Nov-2024
HD Live streaming from Space Station
objects crossing your sky now

SL-14 R/B

Track SL-14 R/B now!
10-day predictions
SL-14 R/B is classified as:


NORAD ID: 17567
Int'l Code: 1987-024B
Perigee: 605.9 km
Apogee: 633.2 km
Inclination: 82.5 °
Period: 96.9 minutes
Semi major axis: 6990 km
RCS: 4.538 m2 (large)
Launch date: March 3, 1987
Source: Commonwealth of Independent States (former USSR) (CIS)
Launch site: PLESETSK MISSILE AND SPACE COMPLEX (PKMTR)

Note: This is a ROCKET BODY
Your satellite tracking list
Your tracking list is empty




NASA's NSSDC Master Catalog

Two Line Element Set (TLE):
1 17567U 87024B   24325.93161348  .00000838  00000-0  94332-4 0  9992
2 17567  82.5286 177.7088 0019510  32.6878 327.5541 14.85368129 17784
Source of the keplerian elements: AFSPC